Back to catalog

STARLINK-5544

AliveCommunicationsVLEO
NORAD 55757·PAYLOAD·🇺🇸 United States

Launched Mar 3, 2023 from Vandenberg Space Force Base

Loading…

Next Passes (next 24 hours)

TLE

FreshSource: CelesTrak SupGP

Epoch: Sep 14, 2026, 22:28 UTC

1 55757C 23028S   26257.93659722  .00006909  00000+0  57912-3 0  2576
2 55757  70.0002 127.2376 0002654 272.5147 281.1455 14.98321066    10

Track STARLINK-5544 in real time with AllMySat

Download on the App Store